Track COSMOS 2516 (GLONASS) now! COSMOS 2516 (GLONASS) is classified as:
1 41554U 16032A 25197.39137033 .00000106 00000-0 00000-0 0 9991 2 41554 63.8446 202.5885 0017336 213.7506 146.1663 2.13106517 71074